Terminal Aerodrome Forecast
Issued by NWS Grand Forks, ND

Home | Current Version | Previous Version | Graphics & Text | Print | Product List | Glossary On
Versions: 1 2 3 4 5 6 7 8 9 10 11 12 13 14 15
000
FTUS43 KFGF 221400 AAB
TAFFAR
TAF AMD
KFAR 221452Z 2215/2312 19015G22KT P6SM BKN005
     FM221630 20018G26KT P6SM BKN250
     FM231000 25015KT P6SM BKN080=

USA.gov is the U.S. government's official web portal to all federal, state and local government web resources and services.